STARLINK-31097 (58718 NORAD) Tracking and Keplerian Element Data

This shows tracking and keplerian element data for the satellite.

Feedback or suggestion? Click here.




ElementValue
Catalog58718
NameSTARLINK-31097
Epoch Orbit277
Epoch Day13.25002315
Epoch Year2024
RAAN198.7756
Inclination53.1609
Eccentricity8.93E-05
Argument of Perigee87.0378
Mean Anonmoly153.5316
Mean Motion15.51438449
Decay Rate-0.01743926
L11 58718U 24002P 24013.25002315 -.01743926 00000+0 -32628-1 0 9990
L22 58718 53.1609 198.7756 0000893 87.0378 153.5316 15.51438449 2775



Live tracking and technical data element details for STARLINK-31097 (NORAD 58718). STARLINK-31097 can be tracked NOW for your location showing map with azimuth and elevation plus other details from your city location.







IsCatalogInMostPopularTable: catalog: 58718, numindb: 29
Update: records affected: 1



GetName: 58718 STARLINK-31097

Hit Count: updated at: Wed, 17 Apr 2024 03:05:33 GMT